Location: Gandikunta
(16.3784°N, 80.8378°E)
Time: 19:23:01
(UTC+00:00)

Feng Yun 1-1 Rocket - Pass Details

Date: 19 May 2025
Orbit: 829 x 932 km, 99.0° (Epoch: 22 June)

Event Time Altitude Azimuth Distance (km) Brightness Sun altitude
Exits shadow 14:55:58 67° 106° (ESE) 930 4.1 -25.5°
Maximum altitude 14:56:22 70° 76° (ENE) 915 4.1 -25.6°
Drops below altitude 10° 15:01:57 10° 353° (N) 2,536 7.1 -26.7°
Sets 15:04:23 0° 351° (N) 3,491 8.0 -27.2°
